Weather History for Baton Rouge, LA

Change the Weather History Date:

Sunday, August 12, 2012

  Actual Average Record
Temperature  
Mean Temperature 84 °F 83 °F  
Max Temperature 94 °F 93 °F 103 °F (2007)
Min Temperature 74 °F 74 °F 59 °F (1967)
Degree Days  
Heating Degree Days 0 0  
Month to date heating degree days 0 0  
Since 1 June heating degree days 0 0  
Since 1 July heating degree days 0 0  
Cooling Degree Days 19 18  
Month to date cooling degree days 231 216  
Year to date cooling degree days 2080 1821  
Since 1 June cooling degree days 1267 1256  
Growing Degree Days 32 (Base 50)    
Moisture  
Dew Point 74 °F    
Average Humidity 75    
Maximum Humidity 100    
Minimum Humidity 49    
Precipitation  
Precipitation 0.00 in 0.19 in 2.78 in (1968)
Month to date precipitation 1.47 2.31  
Year to date precipitation 39.34 38.20  
Snow  
Snow 0.00 in - - ()
Month to date snowfall 0.0  
Since 1 June snowfall 0.0  
Since 1 July snowfall 0.0  
Snow Depth 0.00 in    
Sea Level Pressure  
Sea Level Pressure 29.99 in    
Wind  
Wind Speed 4 mph (SE)    
Max Wind Speed 13 mph    
Max Gust Speed 17 mph    
Visibility 8 miles    
Events      
T = Trace of Precipitation, MM = Missing Value Source: NWS Daily Summary

Daily Weather History Graph

Daily Weather History Graph

Search for Another Location

Airport:

Trip Planner

Search our weather history database for the weather conditions in past years. The results will help you decide how hot, cold, wet, or windy it might be!

Date:

Astronomy

Aug. 12, 2012 Rise Set
Actual Time 6:29 AM CDT 7:48 PM CDT
Civil Twilight 6:04 AM CDT 8:14 PM CDT
Nautical Twilight 5:33 AM CDT 8:44 PM CDT
Astronomical Twilight 5:02 AM CDT 9:15 PM CDT
Moon 1:51 AM CDT (8/12) 4:05 PM CDT (8/12)
Length of Visible Light 14h 09m
Length of Day
13h 19m
Waning Crescent, 24% of the Moon is Illuminated
Aug 12
Waning Crescent
Aug 17
New
Aug 24
First Quarter
Aug 31
Full
Sep 8
Last Quarter

Hourly Weather History & Observations

Time (CDT) Temp. Heat Index Dew Point Humidity Pressure Visibility Wind Dir Wind Speed Gust Speed Precip Events Conditions
12:53 AM 79.0 °F - 77.0 °F 94% 29.95 in 8.0 mi Calm Calm - N/A   Overcast
1:53 AM 78.1 °F - 75.9 °F 93% 29.95 in 7.0 mi Calm Calm - N/A   Clear
2:53 AM 75.9 °F - 75.0 °F 97% 29.96 in 6.0 mi Calm Calm - N/A   Clear
3:53 AM 75.9 °F - 75.0 °F 97% 29.96 in 6.0 mi Calm Calm - N/A   Clear
4:53 AM 75.0 °F - 73.9 °F 96% 29.98 in 5.0 mi ENE 3.5 mph - N/A   Clear
5:53 AM 73.9 °F - 73.9 °F 100% 29.99 in 6.0 mi ENE 3.5 mph - N/A   Clear
6:30 AM 73.4 °F - 73.4 °F 100% 30.00 in 2.5 mi Calm Calm - N/A   Clear
6:53 AM 73.9 °F - 73.0 °F 97% 30.00 in 4.0 mi Calm Calm - N/A   Scattered Clouds
7:53 AM 75.9 °F - 75.0 °F 97% 30.01 in 5.0 mi Calm Calm - N/A   Scattered Clouds
7:58 AM 77.0 °F - 75.2 °F 94% 30.02 in 2.5 mi ENE 3.5 mph - N/A   Mist
8:53 AM 80.1 °F 85.8 °F 77.0 °F 90% 30.03 in 2.5 mi ESE 3.5 mph - N/A   Partly Cloudy
9:53 AM 81.0 °F 88.6 °F 78.1 °F 91% 30.04 in 4.0 mi SE 6.9 mph - N/A   Mostly Cloudy
10:53 AM 84.2 °F 96.1 °F 78.8 °F 84% 30.03 in 6.0 mi ESE 5.8 mph - N/A   Scattered Clouds
11:53 AM 87.1 °F 96.3 °F 75.0 °F 67% 30.01 in 10.0 mi Calm Calm - N/A   Partly Cloudy
12:53 PM 88.0 °F 95.6 °F 73.0 °F 61% 30.00 in 10.0 mi SE 4.6 mph - N/A   Partly Cloudy
1:53 PM 91.9 °F 100.7 °F 73.0 °F 54% 30.00 in 10.0 mi SSE 4.6 mph - N/A   Mostly Cloudy
2:53 PM 91.9 °F 99.5 °F 72.0 °F 52% 29.98 in 10.0 mi NE 3.5 mph - N/A   Scattered Clouds
3:53 PM 91.9 °F 97.4 °F 70.0 °F 48% 29.95 in 10.0 mi ESE 6.9 mph - N/A   Scattered Clouds
4:53 PM 89.1 °F 97.0 °F 73.0 °F 59% 29.95 in 10.0 mi South 11.5 mph - N/A   Scattered Clouds
5:53 PM 86.0 °F 93.0 °F 73.0 °F 65% 29.95 in 10.0 mi WSW 8.1 mph - N/A   Partly Cloudy
6:53 PM 84.0 °F 91.9 °F 75.0 °F 74% 29.95 in 10.0 mi South 9.2 mph - N/A   Clear
7:53 PM 82.0 °F 87.9 °F 73.9 °F 76% 29.96 in 10.0 mi SE 3.5 mph - N/A   Clear
8:53 PM 80.1 °F 84.5 °F 73.9 °F 81% 29.97 in 10.0 mi Calm Calm - N/A   Clear
9:53 PM 80.1 °F 84.5 °F 73.9 °F 81% 29.98 in 10.0 mi Calm Calm - N/A   Clear
10:53 PM 80.1 °F 84.5 °F 73.9 °F 81% 30.00 in 10.0 mi South 5.8 mph - N/A   Clear
11:53 PM 80.1 °F 85.1 °F 75.0 °F 85% 30.02 in 10.0 mi Calm Calm - N/A   Clear